Home   Weather   Kolonia   Past weeks
Flag for Micronesia

Past Weather in Kolonia, Pohnpei, Micronesia — Yesterday and Last 2 Weeks

Now
84 °F

Mostly cloudy.


Feels Like: 95 °F
Forecast: 86 / 76 °F
Wind: No wind

Location: Pohnpei

Current Time: Jul 16, 2019 at 3:26:43 pm

Latest Report: Jul 16, 2019 at 2:53 pm


Visibility: 15 mi

Pressure: 29.76 "Hg

Humidity: 84%

Dew Point: 79 °F

Location of KoloniaLocation

Past Weather in Kolonia — Graph

°F

Kolonia Temperature Yesterday

Maximum temperature yesterday: 89 °F (at 10:50 am)
Minimum temperature yesterday: 76 °F (at 6:52 am)
Average temperature yesterday: 83 °F

High & Low Weather Summary for the Past Weeks

 TemperatureHumidityPressure
High92 °F (Jul 5, 10:53 am)100% (Jul 2, 4:06 am)29.92 "Hg (Jul 2, 4:06 am)
Low74 °F (Jul 13, 4:50 am)63% (Jul 4, 11:52 am)29.74 "Hg (Jul 14, 3:51 pm)
Average81 °F86%29.84 "Hg
* Reported Jul 1 1:52 pm — Jul 16 1:53 pm, Kolonia. Weather by CustomWeather, © 2019

Note: Actual official high and low records may vary slightly from our data, if they occured in-between our weather recording intervals... More about our weather records

Advertising

Kolonia Weather History for the Previous 24 Hours

Scroll right to see more
 ConditionsComfort  
Time TempWeatherWind HumidityBarometerVisibility
1:53 pm
Tue, Jul 16
82 °FSprinkles. Mostly cloudy.3 mph92%29.78 "Hg12 mi
12:52 pm85 °FSprinkles. Mostly cloudy.5 mph92%29.81 "Hg13 mi
12:20 pm86 °FMostly cloudy.3 mph84%29.82 "Hg15 mi
11:51 am89 °FCloudy.3 mph70%29.82 "Hg15 mi
10:53 am89 °FBroken clouds.5 mph67%29.83 "Hg15 mi
9:50 am86 °FBroken clouds.3 mph80%29.83 "Hg15 mi
8:51 am81 °FBroken clouds.No wind83%29.83 "Hg15 mi
7:54 am79 °FPartly sunny.3 mph91%29.83 "Hg15 mi
5:54 am76 °FPartly cloudy.5 mph94%29.80 "Hg15 mi
4:54 am76 °FPassing clouds.3 mph94%29.78 "Hg15 mi
3:52 am76 °FPassing clouds.5 mph94%29.78 "Hg15 mi
2:52 am76 °FPassing clouds.3 mph95%29.78 "Hg15 mi
12:54 am76 °FPartly cloudy.No wind95%29.82 "Hg15 mi
11:54 pm
Mon, Jul 15
77 °FPassing clouds.5 mph93%29.84 "Hg15 mi
10:50 pm77 °FPassing clouds.5 mph91%29.85 "Hg15 mi
9:50 pm78 °FPassing clouds.5 mph93%29.85 "Hg15 mi
8:50 pm78 °FPassing clouds.5 mph91%29.83 "Hg15 mi
7:52 pm80 °FPassing clouds.3 mph92%29.82 "Hg15 mi
6:51 pm83 °FPassing clouds.No wind85%29.79 "Hg15 mi
5:50 pm84 °FBroken clouds.3 mph80%29.77 "Hg15 mi
4:50 pm85 °FSprinkles. More clouds than sun.5 mph87%29.76 "Hg14 mi
3:50 pm86 °FCloudy.3 mph80%29.77 "Hg15 mi
Weather by CustomWeather, © 2019

See weather overview

LIVE PARTIAL LUNAR ECLIPSE – Watch the eclipse as it happens